#timestamp,LO_Frequency,Hit,StdDev 
1620399615.3,286047000.6,N
1620399635.1,286046999.9,N
1620399655.9,286046999.2,N
1620399675.7,286046999.9,N
1620399695.5,286047002.3,N
1620399715.4,286046999.8,N
1620399735.2,286046998.7,N
1620399755.0,286046996.6,N
1620399755.9,286046996.6,N
1620399775.8,286046994.9,N
1620399795.6,286046999.2,N
1620399815.4,286046997.4,N
1620399835.3,286047011.9,Y
1620399855.1,286046997.2,P
1620399875.9,286047000.6,N
1620399895.7,286046998.3,N
1620399915.5,286047001.7,N
1620399935.4,286047002.2,N
1620399955.2,286047001.0,N
1620399975.0,286046998.8,N
1620399976.0,286046998.8,N
1620399995.8,286047002.4,N
1620400015.6,286047002.0,N
1620400035.5,286047001.3,N
1620400055.3,286047001.1,N
1620400075.1,286047000.3,N
1620400095.9,286047000.3,N
1620400115.7,286047000.9,N
1620400135.5,286046999.5,N
1620400155.4,286046998.2,N
1620400175.2,286046998.8,N
1620400195.1,286046998.4,N
1620400196.0,286046998.4,N
1620400215.8,286046996.5,N
1620400235.6,286046996.5,N
1620400255.5,286046997.7,N
1620400275.1,286046997.7,N
1620400276.0,286046997.7,N
1620400295.8,286046996.7,N
1620400315.7,286046994.9,N
1620400335.5,286046993.6,Y
1620400355.3,286046996.2,P
1620400375.2,286046997.5,N
1620400395.0,286046998.0,N
1620400395.9,286046998.0,N
1620400415.8,286046997.7,N
1620400435.6,286046998.3,N
1620400455.4,286046997.4,Y
1620400475.3,286047003.2,P
1620400495.1,286047004.6,N
1620400515.8,286047006.0,N
1620400535.7,286047002.1,N
1620400555.5,286047004.0,N
1620400575.4,286047002.1,N
1620400595.2,286047001.7,N
1620400615.0,286047002.4,N
1620400615.9,286047002.4,N
1620400635.8,286047002.5,N
1620400655.6,286046999.9,N
1620400675.4,286047002.5,N
1620400695.3,286047001.3,N
1620400715.1,286046999.9,N
1620400735.9,286046999.9,N
1620400755.7,286047001.3,N
1620400775.5,286047004.7,N
1620400795.4,286047005.3,N
1620400815.2,286047005.8,N
1620400835.0,286047003.7,N
1620400835.9,286047003.7,N
1620400855.8,286047003.5,N
1620400875.6,286047004.8,N
1620400895.5,286047000.1,N
1620400915.3,286047001.5,N
1620400935.1,286046999.7,N
1620400955.9,286046998.1,N
1620400975.7,286046996.7,N
1620400995.5,286046998.7,N
1620401015.4,286047000.0,N
1620401035.2,286046999.3,N
1620401055.1,286047000.4,N
1620401056.0,286047000.4,N
1620401075.8,286046998.4,N
1620401095.6,286047001.0,N
1620401115.5,286046999.1,N
1620401135.3,286046996.5,N
1620401155.2,286046996.6,N
1620401175.9,286046998.9,N
1620401195.7,286046999.0,N
1620401215.6,286046998.8,N
1620401235.4,286047000.2,N
1620401255.2,286046999.7,N
1620401275.1,286047002.2,N
1620401276.0,286047002.2,N
1620401295.8,286047000.6,N
1620401315.7,286047000.9,N
1620401335.5,286047000.1,N
1620401355.3,286047002.2,N
1620401375.2,286047002.2,N
1620401395.0,286047004.4,N
1620401395.9,286047004.4,N
1620401415.8,286047003.8,N
1620401435.6,286047004.2,N
1620401455.4,286047003.2,N
1620401475.3,286047004.2,N
1620401495.1,286047006.0,N
1620401496.0,286047006.0,N
1620401515.8,286047005.9,N
1620401535.7,286047005.8,N
1620401555.5,286047003.3,N
1620401575.3,286047004.2,N
1620401595.2,286047002.2,N
1620401615.0,286047001.4,N
1620401615.9,286047001.4,N
1620401635.8,286047001.4,N
1620401655.6,286047006.0,N
1620401675.4,286047003.2,N
1620401695.3,286047003.8,N
1620401715.1,286047002.1,N
1620401735.9,286047002.2,N
1620401755.7,286047004.2,N
1620401775.5,286047002.2,N
1620401795.4,286046999.8,N
1620401815.2,286046999.8,N
1620401835.0,286047004.0,N
1620401835.9,286047004.0,N
1620401855.8,286047005.3,N
1620401875.6,286047005.5,Y
1620401895.5,286047000.4,P
1620401915.3,286047002.4,N
1620401935.1,286047001.5,N
1620401955.9,286047003.4,Y
1620401975.7,286047001.5,P
1620401995.6,286046998.5,P
1620402015.4,286047000.9,N
1620402035.2,286047000.3,N
1620402055.1,286047000.9,N
1620402056.0,286047000.9,N
1620402075.8,286047000.3,N
1620402095.7,286047000.8,N
1620402115.5,286046997.0,Y
1620402135.3,286046998.0,P
1620402155.2,286046996.9,N
1620402175.0,286046998.7,N
1620402175.9,286046998.7,N
1620402195.7,286046999.2,N
1620402215.6,286046997.3,N
1620402235.4,286046995.6,Y
1620402255.3,286047001.0,P
1620402275.1,286047002.7,N
1620402295.8,286047002.5,N
1620402315.7,286047002.8,N
1620402335.5,286047000.2,N
1620402355.4,286047000.4,N
1620402375.2,286047002.5,N
1620402395.1,286047001.9,N
1620402396.0,286047001.9,N
1620402415.8,286047002.3,N
1620402435.6,286047000.5,N
1620402455.5,286047000.4,N
1620402475.3,286047000.9,N
1620402495.1,286047001.0,N
1620402515.9,286046998.4,N
1620402535.7,286046999.6,N
1620402555.6,286047000.2,N
1620402575.4,286047002.7,N
1620402595.2,286047001.9,N
1620402615.1,286047002.0,N
1620402616.0,286047002.0,N
1620402635.8,286047003.5,N
1620402655.7,286047004.2,Y
1620402675.5,286046998.9,P
1620402695.3,286046999.6,N
1620402715.2,286046997.4,N
1620402735.0,286046996.7,N
1620402735.9,286046996.7,N
1620402755.8,286046997.4,N
1620402775.6,286046997.3,N
1620402795.4,286046996.5,N
1620402815.3,286047001.2,N
1620402835.1,286047000.5,N
1620402855.8,286047000.4,N
1620402875.7,286047000.4,N
1620402895.5,286047001.0,N
1620402915.4,286046996.8,N
1620402935.2,286046998.0,N
1620402955.0,286046996.8,N
1620402955.9,286046996.8,N
1620402975.8,286047009.9,Y
1620402995.6,286047015.0,P
1620403015.5,286047013.5,N
1620403035.3,286047008.7,N
1620403055.1,286047004.5,N
1620403075.9,286047005.6,N
1620403095.7,286047001.8,N
1620403115.5,286046999.7,N
1620403135.4,286046999.7,N
1620403155.2,286047001.1,N
1620403175.1,286046996.5,N
1620403176.0,286046996.5,N
1620403195.8,286046996.7,N
